Location: ??????
(55.2000°N, 38.3000°E)
Time: 17:46:49
(UTC+00:00)

Cosmos 1025 Rocket - Pass Details

Date: 15 November 2025
Orbit: 586 x 610 km, 82.5° (Epoch: 14 December)

Event Time Altitude Azimuth Distance (km) Brightness Sun altitude
Rises 04:03:55 0° 207° (SSW) 2,866 6.4 -7.9°
Reaches altitude 10° 04:06:12 10° 214° (SW) 1,967 5.5 -7.6°
Maximum altitude 04:10:24 46° 288° (WNW) 825 3.3 -7.1°
Drops below altitude 10° 04:14:39 10° 3° (N) 1,979 5.5 -6.5°
Sets 04:16:57 0° 9° (N) 2,886 6.3 -6.2°
